Preview of NWS' New Version of Forecast
This preview is not operational and should not be used for support decisions.

Regional Weather Roundup (RWR)

Issued by National Weather Service (NWS)

                            
000
ASUS46 KPQR 240710
RWROR 

OREGON REGIONAL WEATHER ROUNDUP
NATIONAL WEATHER SERVICE PORTLAND OR
1200 AM PDT MON JUN 24 2019

NOTE: "FAIR" INDICATES FEW OR NO CLOUDS BELOW 12,000 FEET WITH
NO SIGNIFICANT WEATHER AND/OR OBSTRUCTIONS TO VISIBILITY.

ORZ001>013-240800-
NORTHWEST OREGON

  
CITY           SKY/WX    TMP DP  RH WIND       PRES   REMARKS
ASTORIA        MOCLDY    53  49  86 CALM      30.15F                  
TILLAMOOK      CLEAR     50  46  87 SE3       30.17F                  
NEWPORT        CLEAR     52  48  87 N6        30.17F                  
PORTLAND       PTCLDY    56  45  66 NW9       30.14F                  
VANCOUVER WA   CLEAR     56  45  66 NW5       30.13F                  
SCAPPOOSE      CLEAR     55  45  68 NW7       30.13F                  
HILLSBORO      CLEAR     51  44  77 NW5       30.14F                  
AURORA         CLOUDY    57  44  62 N8        30.15R                  
MCMINNVILLE    CLEAR     54  45  71 NE6       30.13S                  
SALEM          CLEAR     55  47  74 N8        30.12F                  
CORVALLIS      CLEAR     56  48  74 NW12      30.12S                  
EUGENE         CLEAR     54  47  77 NE6       30.11S                  
$$

ORZ021-028-240800-
SOUTHWEST OREGON

  
CITY           SKY/WX    TMP DP  RH WIND       PRES   REMARKS
NORTH BEND     MOCLDY    53  51  93 N8        30.16F                  
BROOKINGS      CLEAR     53  48  83 SE5       30.04R                  
ROSEBURG       CLEAR     64  47  53 N3        30.08F                  
SEXTON SUMMIT  CLEAR     53  42  66 N12       30.11F                  
GRANTS PASS    FAIR      64  46  52 N7        30.08S                  
MEDFORD        CLEAR     66  43  43 W5        30.04F                  
$$

ORZ014>016-041-240800-
COLUMBIA GORGE

  
CITY           SKY/WX    TMP DP  RH WIND       PRES   REMARKS
TROUTDALE      PTCLDY    56  46  69 VRB3      30.13F                  
HOOD RIVER     PTCLDY    57  45  62 NW9       30.07F                  
THE DALLES     CLEAR     61  46  57 NW18G29   30.03F                  
$$

ORZ029>031-041-044-049-050-061>064-502-503-505>511-240800-
EASTERN OREGON

  
CITY           SKY/WX    TMP DP  RH WIND       PRES   REMARKS
MADRAS         CLEAR     46  41  81 NE6       30.10S                  
REDMOND        CLEAR     52  40  63 E5        30.08F                  
BEND           CLEAR     52  39  62 CALM      30.09S                  
PRINEVILLE     CLEAR     48  39  71 CALM      30.08F                  
KLAMATH FALLS  CLEAR     46  39  76 S3        30.10F                  
LAKEVIEW       CLEAR     51  36  56 N10       30.11S                  
HERMISTON      CLEAR     60  43  53 SW13      29.99S                  
PENDLETON      PTCLDY    58  40  51 W17G24    30.01S                  
JOHN DAY       PTCLDY    53  37  53 N5        30.07R                  
MEACHAM        CLEAR     48  39  71 CALM      30.05F                  
LA GRANDE      CLEAR     52  40  63 NW7       30.04R                  
BAKER CITY     CLEAR     50  38  63 NW3       30.03S                  
BURNS          PTCLDY    50  33  52 NW8       30.06S                  
ROME             N/A     60  31  33 NW3       30.03R                  
ONTARIO        CLEAR     61  38  42 NW9       29.98S                  
$$